Weather History for KACT - October, 2014

Change the Weather History Date:

Sunday, October 26, 2014

  Actual Average Record
Temperature  
Mean Temperature 75 °F 65 °F  
Max Temperature 86 °F 77 °F 94 °F (1992)
Min Temperature 63 °F 54 °F 35 °F (2007)
Degree Days  
Heating Degree Days 0 3  
Month to date heating degree days 3 43  
Since 1 July heating degree days 3 49  
Cooling Degree Days 10 4  
Month to date cooling degree days 208 146  
Year to date cooling degree days 2722 2740  
Growing Degree Days 24 (Base 50)    
Moisture  
Dew Point 58 °F    
Average Humidity 65    
Maximum Humidity 93    
Minimum Humidity 36    
Precipitation  
Precipitation 0.00 in 0.12 in 2.42 in (2009)
Month to date precipitation 5.01 3.33  
Year to date precipitation 26.87 28.55  
Snow  
Snow 0.00 in 0.00 in 0.00 in ()
Month to date snowfall 0.0 0.0  
Since 1 July snowfall 0.0 0.0  
Since 1 September snowfall 0.0 0.0  
Snow Depth 0.00 in    
Sea Level Pressure  
Sea Level Pressure 29.96 in    
Wind  
Wind Speed 13 mph (South)    
Max Wind Speed 22 mph    
Max Gust Speed 27 mph    
Visibility 10 miles    
Events      
T = Trace of Precipitation, MM = Missing Value Source: NWS Daily Summary

Daily Weather History Graph

Daily Weather History Graph

Search for Another Location

Airport or City:

Trip Planner

Search our weather history database for the weather conditions in past years. The results will help you decide how hot, cold, wet, or windy it might be!

Date:

Astronomy

Oct. 26, 2014 Rise Set
Actual Time 7:40 AM CDT 6:45 PM CDT
Civil Twilight 7:15 AM CDT 7:09 PM CDT
Nautical Twilight 6:46 AM CDT 7:38 PM CDT
Astronomical Twilight 6:18 AM CDT 8:06 PM CDT
Moon 10:13 AM CDT (10/26) 9:04 PM CDT (10/26)
Length of Visible Light 11h 54m
Length of Day
11h 04m
Waxing Crescent, 8% of the Moon is Illuminated
Oct 26
Waxing Crescent
Oct 30
First Quarter
Nov 6
Full
Nov 14
Last Quarter
Nov 22
New

Hourly Weather History & Observations

Time (CDT) Temp. Heat Index Dew Point Humidity Pressure Visibility Wind Dir Wind Speed Gust Speed Precip Events Conditions
12:51 AM 66.0 °F - 60.1 °F 81% 30.04 in 10.0 mi SSW 5.8 mph - N/A   Clear
1:51 AM 66.9 °F - 60.1 °F 79% 30.03 in 10.0 mi SSW 8.1 mph - N/A   Clear
2:51 AM 66.0 °F - 60.1 °F 81% 30.02 in 10.0 mi SSW 8.1 mph - N/A   Clear
3:51 AM 64.9 °F - 59.0 °F 81% 30.01 in 10.0 mi SSW 9.2 mph - N/A   Clear
4:51 AM 64.0 °F - 59.0 °F 84% 30.01 in 10.0 mi South 8.1 mph - N/A   Clear
5:51 AM 64.0 °F - 60.1 °F 87% 30.01 in 10.0 mi South 9.2 mph - N/A   Clear
6:51 AM 63.0 °F - 60.1 °F 90% 30.02 in 10.0 mi South 8.1 mph - N/A   Clear
7:51 AM 63.0 °F - 60.1 °F 90% 30.02 in 10.0 mi South 8.1 mph - N/A   Clear
8:51 AM 66.9 °F - 61.0 °F 81% 30.03 in 10.0 mi South 9.2 mph - N/A   Clear
9:51 AM 72.0 °F - 61.0 °F 68% 30.04 in 10.0 mi SSW 11.5 mph - N/A   Clear
10:51 AM 78.1 °F - 60.1 °F 54% 30.03 in 10.0 mi SSW 12.7 mph - N/A   Clear
11:51 AM 81.0 °F 81.6 °F 60.1 °F 49% 30.01 in 10.0 mi SSW 15.0 mph - N/A   Clear
12:51 PM 82.9 °F 83.2 °F 60.1 °F 46% 29.99 in 10.0 mi South 12.7 mph - N/A   Clear
1:51 PM 84.9 °F 84.8 °F 60.1 °F 43% 29.95 in 10.0 mi South 17.3 mph - N/A   Clear
2:51 PM 84.9 °F 84.4 °F 59.0 °F 41% 29.91 in 10.0 mi South 16.1 mph - N/A   Clear
3:51 PM 84.9 °F 83.7 °F 55.9 °F 37% 29.89 in 10.0 mi SSE 15.0 mph - N/A   Clear
4:51 PM 84.0 °F 83.0 °F 55.9 °F 38% 29.88 in 10.0 mi South 12.7 mph - N/A   Clear
5:51 PM 81.0 °F - 52.0 °F 36% 29.88 in 10.0 mi South 16.1 mph - N/A   Clear
6:51 PM 75.9 °F - 55.9 °F 50% 29.88 in 10.0 mi South 10.4 mph - N/A   Clear
7:51 PM 75.0 °F - 55.0 °F 50% 29.89 in 10.0 mi SSE 12.7 mph - N/A   Clear
8:51 PM 73.0 °F - 55.9 °F 55% 29.89 in 10.0 mi SSE 12.7 mph - N/A   Clear
9:51 PM 72.0 °F - 55.9 °F 57% 29.89 in 10.0 mi South 13.8 mph - N/A   Clear
10:51 PM 71.1 °F - 55.0 °F 57% 29.89 in 10.0 mi South 16.1 mph - N/A   Clear
11:51 PM 70.0 °F - 55.9 °F 61% 29.88 in 10.0 mi South 19.6 mph - N/A   Clear